Content
SEND FEEDBACK

Daily
Averages
Monthly
Summary
United States of America

MILWAUKEE, WISCONSIN


Home > North America > United States > Wisconsin
Elevation: 672 feet     Latitude: 42 57N     Longitude: 087 54W

WEATHER
 
SELECT A DAY
Number of Records: 202,807;   Date Range: 1/1/95 - 10/23/14
 
SHARE

PRINT THIS DATA

[ ← Previous Day ]
WEATHER ALMANAC - OCTOBER 22, 2013
[ Next Day → ]
[ °C ]   °F
Weather ElementAverageHighLow
Temperature38.6 °F46 °F (2:52 pm)30.9 °F (5:52 am)
Dewpoint25.6 °F28.9 °F (10:52 pm)21.9 °F (1:52 am)
Humidity60.3 %72 % (5:52 am)44 % (3:52 pm)
Barometer29.95 in29.98 in (9:52 am)29.91 in (3:52 pm)
Wind Speed6.3 mph10.4 mph (11:52 am)
Weather ElementAverage
Visibility10 mi
Wind DirectionWSW (263.9 °)

Weather ElementTotal
Precipitation---
Heating Degree Days26.6 (Base 65)
Averaged from 23 records on October 22, 2013
WEATHER CONDITIONS BREAKOUT
WIND DIRECTION BREAKOUT
WEATHER BY HOUR - OCTOBER 22, 2013
[ °C ]   °F
Local TimeTemperatureDewpointHumidityBarometerVisibilityWind DirectionWind SpeedGust SpeedPrecipitationEventsConditions
1:52 AM34.0 °F21.9 °F61 %29.95 in10.0 miWSW (250°)4.6 mphClear
2:52 AM34.0 °F21.9 °F61 %29.95 in10.0 miWest (260°)6.9 mphClear
3:52 AM33.1 °F21.9 °F64 %29.95 in10.0 miWest (260°)6.9 mphClear
4:52 AM32.0 °F23.0 °F69 %29.96 in10.0 miWSW (240°)6.9 mphClear
5:52 AM30.9 °F23.0 °F72 %29.97 in10.0 miWSW (240°)6.9 mphClear
6:52 AM30.9 °F23.0 °F72 %29.96 in10.0 miWest (270°)8.1 mphPartly Cloudy
7:52 AM32.0 °F23.0 °F69 %29.97 in10.0 miWest (270°)6.9 mphScattered Clouds
8:52 AM35.1 °F25.0 °F67 %29.97 in10.0 miWest (270°)8.1 mphScattered Clouds
9:52 AM37.0 °F26.1 °F65 %29.98 in10.0 miWNW (290°)9.2 mphScattered Clouds
10:52 AM39.9 °F26.1 °F58 %29.97 in10.0 miWest (270°)6.9 mphMostly Cloudy
11:52 AM42.1 °F27.0 °F55 %29.96 in10.0 miNW (310°)10.4 mphScattered Clouds
12:52 PM43.0 °F27.0 °F53 %29.94 in10.0 miWest (260°)9.2 mphMostly Cloudy
1:52 PM45.0 °F26.1 °F48 %29.92 in10.0 miWest (270°)4.6 mphMostly Cloudy
2:52 PM46.0 °F26.1 °F46 %29.92 in10.0 miNW (320°)5.8 mphMostly Cloudy
3:52 PM46.0 °F25.0 °F44 %29.91 in10.0 miWest (270°)8.1 mphMostly Cloudy
4:52 PM46.0 °F27.0 °F47 %29.92 in10.0 miWest (270°)6.9 mphMostly Cloudy
5:52 PM44.1 °F27.0 °F51 %29.93 in10.0 miWNW (290°)6.9 mphMostly Cloudy
6:52 PM43.0 °F27.0 °F53 %29.93 in10.0 miWest (270°)3.5 mphScattered Clouds
7:52 PM41.0 °F28.0 °F60 %29.94 in10.0 miCalmPartly Cloudy
8:52 PM39.9 °F28.0 °F63 %29.94 in10.0 miWest (280°)4.6 mphScattered Clouds
9:52 PM37.9 °F28.0 °F68 %29.94 in10.0 miWNW (300°)4.6 mphMostly Cloudy
10:52 PM37.9 °F28.9 °F70 %29.94 in10.0 miWNW (300°)3.5 mphScattered Clouds
11:52 PM37.0 °F28.0 °F70 %29.93 in10.0 miNW (310°)4.6 mphScattered Clouds
Hourly data recorded from KMKE, located miles away from Milwaukee, Wisconsin







STORIES FROM OUR PARTNERS